| time (UTC) | temp C | wind direction | speed KPH | gust KPH | rain 1hr cm | rain 24hr cm | rain mn cm | humidity % | barometer mb |
| 20260502123032 | 3 | 178 | 0.0 | 0.0 | 0.00 | 0.00 | 0.00 | 72 | 1021.3 |
| 20260502121525 | 3 | 178 | 0.0 | 0.0 | 0.00 | 0.00 | 0.00 | 73 | 1021.3 |
| 20260502114512 | 3 | 178 | 0.0 | 0.0 | 0.00 | 0.00 | 0.00 | 71 | 1021.2 |
| 20260502113013 | 3 | 178 | 0.0 | 0.0 | 0.00 | 0.00 | 0.00 | 71 | 1021.1 |
| 20260502111521 | 3 | 178 | 0.0 | 0.0 | 0.00 | 0.00 | 0.00 | 72 | 1021.2 |
| 20260502110025 | 3 | 178 | 0.0 | 0.0 | 0.00 | 0.00 | 0.00 | 73 | 1021.3 |
| 20260502104531 | 3 | 178 | 0.0 | 0.0 | 0.00 | 0.00 | 0.00 | 72 | 1021.2 |
| 20260502103011 | 3 | 178 | 0.0 | 0.0 | 0.00 | 0.00 | 0.00 | 70 | 1021.1 |
| 20260502101516 | 4 | 178 | 0.0 | 0.0 | 0.00 | 0.00 | 0.00 | 68 | 1020.9 |
| 20260502091512 | 5 | 178 | 0.0 | 0.0 | 0.00 | 0.00 | 0.00 | 68 | 1020.6 |
| 20260502071504 | 6 | 178 | 0.0 | 0.0 | 0.00 | 0.00 | 0.00 | 66 | 1020.8 |
| 20260502070009 | 6 | 178 | 0.0 | 0.0 | 0.00 | 0.00 | 0.00 | 64 | 1020.9 |
| 20260502064515 | 7 | 178 | 0.0 | 0.0 | 0.00 | 0.00 | 0.00 | 63 | 1020.9 |
| 20260502063021 | 7 | 178 | 0.0 | 0.0 | 0.00 | 0.00 | 0.00 | 63 | 1020.7 |
| 20260502061533 | 7 | 178 | 0.0 | 0.0 | 0.00 | 0.00 | 0.00 | 63 | 1020.7 |
| 20260502060025 | 7 | 178 | 0.0 | 0.0 | 0.00 | 0.00 | 0.00 | 61 | 1020.6 |
| 20260502054507 | 7 | 178 | 0.0 | 0.0 | 0.00 | 0.00 | 0.00 | 58 | 1020.6 |
| 20260502053015 | 8 | 178 | 0.0 | 0.0 | 0.00 | 0.00 | 0.00 | 59 | 1020.5 |
| 20260502051524 | 8 | 178 | 0.0 | 0.0 | 0.00 | 0.00 | 0.00 | 57 | 1020.4 |
| 20260502050024 | 8 | 180 | 0.0 | 0.0 | 0.00 | 0.00 | 0.00 | 55 | 1020.4 |
| 20260502044524 | 9 | 180 | 0.0 | 0.0 | 0.00 | 0.00 | 0.00 | 51 | 1020.4 |
| 20260502043019 | 9 | 180 | 0.0 | 0.0 | 0.00 | 0.00 | 0.00 | 49 | 1020.4 |
| 20260502041524 | 10 | 180 | 0.0 | 0.0 | 0.00 | 0.00 | 0.00 | 47 | 1020.3 |
| 20260502040019 | 10 | 180 | 0.0 | 0.0 | 0.00 | 0.00 | 0.00 | 44 | 1020.3 |
| 20260502034524 | 11 | 180 | 0.0 | 0.0 | 0.00 | 0.00 | 0.00 | 41 | 1020.1 |
| 20260502033027 | 11 | 180 | 0.0 | 0.0 | 0.00 | 0.00 | 0.00 | 38 | 1019.8 |
| 20260502031514 | 12 | 180 | 0.0 | 0.0 | 0.00 | 0.00 | 0.00 | 37 | 1019.7 |
| 20260502030018 | 12 | 180 | 0.0 | 0.0 | 0.00 | 0.00 | 0.00 | 33 | 1019.5 |
| 20260502024522 | 13 | 180 | 0.0 | 0.0 | 0.00 | 0.00 | 0.00 | 31 | 1019.3 |
| 20260502023027 | 15 | 180 | 0.0 | 1.6 | 0.00 | 0.00 | 0.00 | 27 | 1019.3 |
| 20260502021526 | 15 | 130 | 0.0 | 8.0 | 0.00 | 0.00 | 0.00 | 27 | 1019.2 |
| 20260502020014 | 16 | 124 | 3.2 | 8.0 | 0.00 | 0.00 | 0.00 | 26 | 1019.0 |
| 20260502014519 | 17 | 64 | 3.2 | 9.7 | 0.00 | 0.00 | 0.00 | 26 | 1018.8 |
| 20260502013023 | 17 | 108 | 1.6 | 6.4 | 0.00 | 0.00 | 0.00 | 27 | 1018.8 |
| 20260502011531 | 18 | 109 | 3.2 | 8.0 | 0.00 | 0.00 | 0.00 | 27 | 1018.7 |
| 20260502010027 | 18 | 168 | 1.6 | 8.0 | 0.00 | 0.00 | 0.00 | 26 | 1018.8 |
| 20260502004514 | 20 | 184 | 3.2 | 9.7 | 0.00 | 0.00 | 0.00 | 24 | 1018.8 |
| 20260502003020 | 21 | 157 | 1.6 | 4.8 | 0.00 | 0.00 | 0.00 | 23 | 1018.8 |
| 20260502001524 | 21 | 122 | 1.6 | 12.9 | 0.00 | 0.00 | 0.00 | 24 | 1018.9 |
| 20260502000009 | 22 | 127 | 3.2 | 8.0 | 0.00 | 0.00 | 0.00 | 23 | 1019.0 |
| 20260501234515 | 21 | 123 | 1.6 | 9.7 | 0.00 | 0.00 | 0.00 | 23 | 1018.9 |
| 20260501233017 | 21 | 261 | 4.8 | 22.5 | 0.00 | 0.00 | 0.00 | 23 | 1019.0 |
| 20260501231502 | 21 | 133 | 3.2 | 14.5 | 0.00 | 0.00 | 0.00 | 22 | 1018.9 |
| 20260501230003 | 22 | 78 | 3.2 | 11.3 | 0.00 | 0.00 | 0.00 | 21 | 1019.0 |
| 20260501224507 | 21 | 136 | 1.6 | 19.3 | 0.00 | 0.00 | 0.00 | 22 | 1018.9 |
| 20260501223015 | 21 | 174 | 1.6 | 12.9 | 0.00 | 0.00 | 0.00 | 22 | 1019.4 |
| 20260501221519 | 21 | 96 | 4.8 | 12.9 | 0.00 | 0.00 | 0.00 | 20 | 1019.5 |
| 20260501220003 | 22 | 143 | 4.8 | 12.9 | 0.00 | 0.00 | 0.00 | 19 | 1019.5 |
| 20260501214506 | 21 | 157 | 1.6 | 12.9 | 0.00 | 0.00 | 0.00 | 21 | 1019.8 |
| 20260501213009 | 22 | 170 | 1.6 | 6.4 | 0.00 | 0.00 | 0.00 | 20 | 1019.8 |
| 20260501211516 | 22 | 124 | 1.6 | 11.3 | 0.00 | 0.00 | 0.00 | 20 | 1019.9 |
| 20260501210020 | 22 | 178 | 1.6 | 9.7 | 0.00 | 0.00 | 0.00 | 18 | 1019.9 |
| 20260501204505 | 22 | 174 | 1.6 | 6.4 | 0.00 | 0.00 | 0.00 | 18 | 1019.9 |
| 20260501203006 | 22 | 176 | 0.0 | 8.0 | 0.00 | 0.00 | 0.00 | 20 | 1020.0 |
| 20260501201512 | 21 | 124 | 1.6 | 8.0 | 0.00 | 0.00 | 0.00 | 18 | 1019.8 |
| 20260501200021 | 21 | 127 | 3.2 | 8.0 | 0.00 | 0.00 | 0.00 | 19 | 1019.9 |
| 20260501194524 | 21 | 152 | 3.2 | 9.7 | 0.00 | 0.00 | 0.00 | 18 | 1020.1 |
| 20260501193029 | 20 | 110 | 3.2 | 8.0 | 0.00 | 0.00 | 0.00 | 19 | 1020.0 |
| 20260501191507 | 20 | 184 | 0.0 | 4.8 | 0.00 | 0.00 | 0.00 | 19 | 1020.2 |
| 20260501190012 | 21 | 211 | 0.0 | 6.4 | 0.00 | 0.00 | 0.00 | 20 | 1020.4 |
| 20260501184524 | 20 | 176 | 1.6 | 14.5 | 0.00 | 0.00 | 0.00 | 21 | 1020.5 |
| 20260501183022 | 20 | 124 | 4.8 | 11.3 | 0.00 | 0.00 | 0.00 | 20 | 1020.6 |
| 20260501181530 | 20 | 130 | 0.0 | 4.8 | 0.00 | 0.00 | 0.00 | 21 | 1020.8 |
| 20260501180016 | 19 | 107 | 1.6 | 8.0 | 0.00 | 0.00 | 0.00 | 19 | 1020.9 |
| 20260501174533 | 18 | 269 | 3.2 | 6.4 | 0.00 | 0.00 | 0.00 | 20 | 1020.9 |
| 20260501173021 | 18 | 181 | 0.0 | 3.2 | 0.00 | 0.00 | 0.00 | 27 | 1021.1 |
| 20260501171525 | 17 | 203 | 0.0 | 4.8 | 0.00 | 0.00 | 0.00 | 27 | 1021.1 |
| 20260501170026 | 17 | 199 | 0.0 | 3.2 | 0.00 | 0.00 | 0.00 | 28 | 1021.2 |
| 20260501164510 | 16 | 129 | 0.0 | 4.8 | 0.00 | 0.00 | 0.00 | 30 | 1021.2 |
| 20260501163015 | 16 | 114 | 1.6 | 3.2 | 0.00 | 0.00 | 0.00 | 30 | 1021.2 |
| 20260501161520 | 15 | 207 | 0.0 | 3.2 | 0.00 | 0.00 | 0.00 | 33 | 1021.2 |
| 20260501160027 | 15 | 229 | 0.0 | 6.4 | 0.00 | 0.00 | 0.00 | 34 | 1021.2 |
| 20260501154528 | 14 | 147 | 0.0 | 3.2 | 0.00 | 0.00 | 0.00 | 34 | 1021.1 |
| 20260501153016 | 13 | 158 | 0.0 | 3.2 | 0.00 | 0.00 | 0.00 | 36 | 1021.1 |
| 20260501151521 | 13 | 199 | 0.0 | 0.0 | 0.00 | 0.00 | 0.00 | 37 | 1021.3 |